This is the latest recevied weather packets stored in our database for station/object N8VDS-10. If no packets are shown the sender has not sent any weather packets the latest 10 day(s).
| Time | Temp. | Humidity | Pressure | Rain* | Wind** | Luminosity | Snow |
|---|---|---|---|---|---|---|---|
| 1778023561 | 11.67° C | 40% | 1010.5 hPa | 0 mm | - | 37 W/m² | - |
| 1778023258 | 11.67° C | 39% | 1010.7 hPa | 0 mm | - | 38 W/m² | - |
| 1778022954 | 11.67° C | 39% | 1010.6 hPa | 0 mm | - | 31 W/m² | - |
| 1778022653 | 12.22° C | 39% | 1010.5 hPa | 0 mm | - | 26 W/m² | - |
| 1778022351 | 12.22° C | 38% | 1010.4 hPa | 0 mm | - | 27 W/m² | - |
| 1778022047 | 12.22° C | 40% | 1010.6 hPa | 0 mm | - | 53 W/m² | - |
| 1778021744 | 12.22° C | 39% | 1010.6 hPa | 0 mm | - | 64 W/m² | - |
| 1778021440 | 12.22° C | 38% | 1010.8 hPa | 0 mm | - | 65 W/m² | - |
| 1778021137 | 12.22° C | 38% | 1010.7 hPa | 0 mm | - | 61 W/m² | - |
| 1778020834 | 12.22° C | 39% | 1010.7 hPa | 0 mm | - | 66 W/m² | - |
| 1778020531 | 12.22° C | 38% | 1010.8 hPa | 0 mm | - | 62 W/m² | - |
| 1778020227 | 12.78° C | 37% | 1010.7 hPa | 0 mm | - | 65 W/m² | - |
| 1778019924 | 12.78° C | 39% | 1010.8 hPa | 0 mm | - | 73 W/m² | - |
| 1778019620 | 12.78° C | 38% | 1010.5 hPa | 0 mm | - | 84 W/m² | - |
| 1778019317 | 12.78° C | 38% | 1010.3 hPa | 0 mm | - | 99 W/m² | - |
| 1778019014 | 12.78° C | 37% | 1010.6 hPa | 0 mm | - | 105 W/m² | - |
| 1778018711 | 12.78° C | 37% | 1010.8 hPa | 0 mm | - | 114 W/m² | - |
| 1778018409 | 12.78° C | 39% | 1010.6 hPa | 0 mm | - | 121 W/m² | - |
| 1778018107 | 12.78° C | 41% | 1010.8 hPa | 0 mm | - | 128 W/m² | - |
| 1778017804 | 12.78° C | 41% | 1010.5 hPa | 0 mm | - | 128 W/m² | - |
| 1778017502 | 12.78° C | 40% | 1010.6 hPa | 0 mm | - | 141 W/m² | - |
| 1778017198 | 12.78° C | 39% | 1010.8 hPa | 0 mm | - | 134 W/m² | - |
| 1778016896 | 12.78° C | 40% | 1010.7 hPa | 0 mm | - | 136 W/m² | - |
| 1778016592 | 12.78° C | 40% | 1010.8 hPa | 0 mm | - | 147 W/m² | - |
| 1778016289 | 12.78° C | 42% | 1010.6 hPa | 0 mm | - | 152 W/m² | - |
* Rain latest hour (hover to see other rain measurements)
** Current wind speed in m/s (hover to see current wind gust speed)